TimePDT,TemperatureF,Dew PointF,Humidity,Sea Level PressureIn,VisibilityMPH,Wind Direction,Wind SpeedMPH,Gust SpeedMPH,PrecipitationIn,Events,Conditions,WindDirDegrees,DateUTC
12:15 AM,55.4,30.2,38,30.26,10.0,West,4.6,-,N/A,,Clear,280,2013-06-07 07:15:00
12:35 AM,55.4,28.4,36,30.26,10.0,Calm,Calm,-,N/A,,Clear,0,2013-06-07 07:35:00
12:55 AM,57.2,28.4,33,30.26,10.0,West,11.5,-,N/A,,Clear,260,2013-06-07 07:55:00
1:15 AM,55.4,30.2,38,30.26,10.0,West,8.1,-,N/A,,Clear,270,2013-06-07 08:15:00
1:35 AM,55.4,30.2,38,30.26,10.0,West,6.9,-,N/A,,Clear,270,2013-06-07 08:35:00
1:55 AM,55.4,30.2,38,30.26,10.0,West,9.2,-,N/A,,Clear,270,2013-06-07 08:55:00
2:15 AM,53.6,30.2,41,30.26,10.0,North,3.5,-,N/A,,Clear,360,2013-06-07 09:15:00
2:35 AM,53.6,30.2,41,30.26,10.0,West,3.5,-,N/A,,Clear,270,2013-06-07 09:35:00
2:55 AM,55.4,30.2,38,30.26,10.0,West,5.8,-,N/A,,Clear,280,2013-06-07 09:55:00
3:15 AM,53.6,30.2,41,30.26,10.0,West,6.9,-,N/A,,Clear,280,2013-06-07 10:15:00
3:35 AM,53.6,30.2,41,30.26,10.0,West,11.5,-,N/A,,Clear,270,2013-06-07 10:35:00
3:55 AM,53.6,30.2,41,30.27,10.0,West,9.2,-,N/A,,Clear,280,2013-06-07 10:55:00
4:15 AM,53.6,30.2,41,30.26,10.0,West,11.5,-,N/A,,Clear,270,2013-06-07 11:15:00
4:35 AM,55.4,30.2,38,30.27,10.0,West,15.0,-,N/A,,Clear,270,2013-06-07 11:35:00
4:55 AM,51.8,30.2,44,30.27,10.0,WNW,5.8,-,N/A,,Clear,290,2013-06-07 11:55:00
5:15 AM,51.8,30.2,44,30.27,10.0,NNW,3.5,-,N/A,,Clear,330,2013-06-07 12:15:00
5:35 AM,51.8,30.2,44,30.27,10.0,West,6.9,-,N/A,,Clear,280,2013-06-07 12:35:00
5:55 AM,51.8,30.2,44,30.28,10.0,North,3.5,-,N/A,,Clear,360,2013-06-07 12:55:00
6:15 AM,51.8,30.2,44,30.28,10.0,Calm,Calm,-,N/A,,Clear,0,2013-06-07 13:15:00
6:35 AM,57.2,32.0,38,30.29,10.0,Calm,Calm,-,N/A,,Clear,0,2013-06-07 13:35:00
6:55 AM,59.0,32.0,36,30.29,10.0,Calm,Calm,-,N/A,,Clear,0,2013-06-07 13:55:00
7:15 AM,60.8,33.8,36,30.29,10.0,West,8.1,-,N/A,,Clear,280,2013-06-07 14:15:00
7:35 AM,66.2,35.6,32,30.29,10.0,West,5.8,-,N/A,,Clear,270,2013-06-07 14:35:00
7:55 AM,69.8,35.6,28,30.29,10.0,West,6.9,-,N/A,,Clear,260,2013-06-07 14:55:00
8:15 AM,71.6,30.2,22,30.29,10.0,West,6.9,-,N/A,,Clear,270,2013-06-07 15:15:00
8:35 AM,73.4,28.4,19,30.29,10.0,West,9.2,-,N/A,,Clear,280,2013-06-07 15:35:00
8:55 AM,75.2,28.4,18,30.29,10.0,West,6.9,-,N/A,,Clear,260,2013-06-07 15:55:00
9:15 AM,75.2,28.4,18,30.29,10.0,West,5.8,-,N/A,,Clear,280,2013-06-07 16:15:00
9:35 AM,77.0,26.6,16,30.29,10.0,NNW,6.9,-,N/A,,Clear,340,2013-06-07 16:35:00
9:55 AM,77.0,26.6,16,30.29,10.0,West,4.6,-,N/A,,Clear,280,2013-06-07 16:55:00
10:15 AM,78.8,26.6,15,30.29,10.0,Calm,Calm,-,N/A,,Clear,0,2013-06-07 17:15:00
10:35 AM,78.8,26.6,15,30.28,10.0,NW,5.8,-,N/A,,Clear,310,2013-06-07 17:35:00
10:55 AM,80.6,24.8,13,30.28,10.0,NE,4.6,-,N/A,,Clear,50,2013-06-07 17:55:00
11:15 AM,80.6,24.8,13,30.27,10.0,SSE,10.4,-,N/A,,Clear,150,2013-06-07 18:15:00
11:35 AM,82.4,24.8,12,30.28,10.0,South,6.9,-,N/A,,Clear,180,2013-06-07 18:35:00
11:55 AM,84.2,23.0,11,30.27,10.0,SSE,8.1,-,N/A,,Clear,150,2013-06-07 18:55:00
12:15 PM,82.4,19.4,10,30.27,10.0,SE,6.9,-,N/A,,Clear,140,2013-06-07 19:15:00
12:35 PM,86.0,21.2,9,30.26,10.0,SE,5.8,18.4,N/A,,Clear,130,2013-06-07 19:35:00
12:55 PM,86.0,23.0,10,30.26,10.0,East,11.5,-,N/A,,Clear,100,2013-06-07 19:55:00
1:15 PM,84.2,23.0,11,30.26,10.0,West,6.9,-,N/A,,Clear,260,2013-06-07 20:15:00
1:35 PM,84.2,23.0,11,30.25,10.0,ESE,4.6,-,N/A,,Clear,120,2013-06-07 20:35:00
1:55 PM,86.0,23.0,10,30.24,10.0,SSE,8.1,-,N/A,,Clear,150,2013-06-07 20:55:00
2:15 PM,86.0,23.0,10,30.24,10.0,Calm,Calm,-,N/A,,Clear,0,2013-06-07 21:15:00
2:35 PM,86.0,23.0,10,30.23,10.0,SE,6.9,16.1,N/A,,Clear,130,2013-06-07 21:35:00
2:55 PM,84.2,23.0,11,30.23,10.0,NNE,3.5,-,N/A,,Clear,30,2013-06-07 21:55:00
3:15 PM,84.2,21.2,10,30.22,10.0,NW,6.9,-,N/A,,Clear,310,2013-06-07 22:15:00
3:35 PM,84.2,23.0,11,30.22,10.0,West,3.5,-,N/A,,Clear,260,2013-06-07 22:35:00
3:55 PM,87.8,23.0,9,30.21,10.0,WNW,11.5,17.3,N/A,,Clear,300,2013-06-07 22:55:00
4:15 PM,84.2,21.2,10,30.21,10.0,Calm,Calm,-,N/A,,Clear,0,2013-06-07 23:15:00
4:35 PM,84.2,21.2,10,30.20,10.0,Calm,Calm,-,N/A,,Clear,0,2013-06-07 23:35:00
4:55 PM,84.2,21.2,10,30.19,10.0,NW,9.2,-,N/A,,Clear,310,2013-06-07 23:55:00
5:15 PM,82.4,21.2,10,30.19,10.0,Calm,Calm,-,N/A,,Clear,0,2013-06-08 00:15:00
5:35 PM,86.0,21.2,9,30.19,10.0,Calm,Calm,-,N/A,,Clear,0,2013-06-08 00:35:00
5:55 PM,86.0,21.2,9,30.18,10.0,North,9.2,-,N/A,,Clear,350,2013-06-08 00:55:00
6:15 PM,86.0,21.2,9,30.18,10.0,NNW,10.4,-,N/A,,Clear,330,2013-06-08 01:15:00
6:35 PM,80.6,30.2,16,30.19,10.0,NW,9.2,21.9,N/A,,Clear,310,2013-06-08 01:35:00
6:55 PM,82.4,32.0,16,30.19,10.0,WNW,12.7,-,N/A,,Clear,290,2013-06-08 01:55:00
7:15 PM,80.6,33.8,18,30.19,10.0,WNW,11.5,17.3,N/A,,Clear,300,2013-06-08 02:15:00
7:35 PM,78.8,35.6,21,30.19,10.0,WNW,10.4,-,N/A,,Clear,300,2013-06-08 02:35:00
7:55 PM,77.0,35.6,22,30.19,10.0,NW,4.6,-,N/A,,Clear,320,2013-06-08 02:55:00
8:15 PM,71.6,37.4,29,30.20,10.0,NNW,9.2,-,N/A,,Clear,340,2013-06-08 03:15:00
8:35 PM,73.4,37.4,27,30.20,10.0,West,5.8,19.6,N/A,,Clear,260,2013-06-08 03:35:00
8:55 PM,71.6,37.4,29,30.21,10.0,West,10.4,-,N/A,,Clear,280,2013-06-08 03:55:00
9:15 PM,68.0,37.4,33,30.22,10.0,West,6.9,-,N/A,,Clear,280,2013-06-08 04:15:00
9:35 PM,66.2,37.4,35,30.22,10.0,West,8.1,-,N/A,,Clear,260,2013-06-08 04:35:00
9:55 PM,64.4,37.4,37,30.23,10.0,West,8.1,-,N/A,,Clear,260,2013-06-08 04:55:00
10:15 PM,64.4,35.6,34,30.24,10.0,West,10.4,-,N/A,,Clear,270,2013-06-08 05:15:00
10:35 PM,64.4,35.6,34,30.24,10.0,West,9.2,-,N/A,,Clear,260,2013-06-08 05:35:00
10:55 PM,62.6,35.6,37,30.24,10.0,West,10.4,-,N/A,,Clear,270,2013-06-08 05:55:00
11:15 PM,60.8,37.4,42,30.24,10.0,West,11.5,-,N/A,,Clear,270,2013-06-08 06:15:00
11:35 PM,59.0,35.6,42,30.24,10.0,West,11.5,17.3,N/A,,Clear,270,2013-06-08 06:35:00
11:55 PM,59.0,33.8,39,30.24,10.0,WNW,5.8,17.3,N/A,,Clear,290,2013-06-08 06:55:00